| time (UTC) | temp F | wind direction | speed MPH | gust MPH | rain 1hr in | rain 24hr in | rain mn in | humidity % | barometer mb |
| 20260510192144 | 80 | 5 | 1.0 | 1.0 | 0.00 | 0.00 | 0.00 | 66 | 1015.7 |
| 20260510191640 | 80 | 335 | 3.0 | 3.0 | 0.00 | 0.00 | 0.00 | 69 | 1015.6 |
| 20260510191137 | 78 | 12 | 1.0 | 2.0 | 0.00 | 0.00 | 0.00 | 70 | 1015.7 |
| 20260510190634 | 78 | 338 | 5.0 | 5.0 | 0.00 | 0.00 | 0.00 | 70 | 1015.6 |
| 20260510190132 | 78 | 38 | 1.0 | 1.0 | 0.00 | 0.00 | 0.00 | 69 | 1015.8 |
| 20260510185628 | 79 | 119 | 2.0 | 2.0 | 0.00 | 0.00 | 0.00 | 68 | 1016.1 |
| 20260510185126 | 80 | 330 | 2.0 | 3.0 | 0.00 | 0.00 | 0.00 | 69 | 1016.0 |
| 20260510184623 | 79 | 322 | 1.0 | 2.0 | 0.00 | 0.00 | 0.00 | 68 | 1016.0 |
| 20260510184119 | 78 | 94 | 1.0 | 1.0 | 0.00 | 0.00 | 0.00 | 71 | 1016.0 |
| 20260510183614 | 78 | 308 | 3.0 | 5.0 | 0.00 | 0.00 | 0.00 | 73 | 1016.0 |
| 20260510183109 | 78 | 303 | 5.0 | 6.0 | 0.00 | 0.00 | 0.00 | 71 | 1016.2 |
| 20260510182606 | 78 | 325 | 5.0 | 6.0 | 0.00 | 0.00 | 0.00 | 73 | 1016.3 |
| 20260510182102 | 78 | 288 | 3.0 | 3.0 | 0.00 | 0.00 | 0.00 | 73 | 1016.2 |
| 20260510181559 | 78 | 36 | 3.0 | 5.0 | 0.00 | 0.00 | 0.00 | 73 | 1016.3 |
| 20260510181055 | 78 | 8 | 4.0 | 6.0 | 0.00 | 0.00 | 0.00 | 75 | 1016.2 |
| 20260510180552 | 77 | 11 | 5.0 | 7.0 | 0.00 | 0.00 | 0.00 | 75 | 1016.7 |
| 20260510180051 | 77 | 36 | 2.0 | 2.0 | 0.00 | 0.00 | 0.00 | 73 | 1016.7 |
| 20260510175550 | 77 | 353 | 2.0 | 2.0 | 0.00 | 0.00 | 0.00 | 74 | 1017.1 |
| 20260510175046 | 77 | 339 | 2.0 | 2.0 | 0.00 | 0.00 | 0.00 | 74 | 1016.7 |
| 20260510174545 | 77 | 335 | 5.0 | 5.0 | 0.00 | 0.00 | 0.00 | 75 | 1017.0 |
| 20260510174041 | 77 | 14 | 4.0 | 5.0 | 0.00 | 0.00 | 0.00 | 75 | 1017.1 |
| 20260510173536 | 77 | 339 | 5.0 | 7.0 | 0.00 | 0.00 | 0.00 | 75 | 1017.0 |
| 20260510173034 | 77 | 347 | 7.0 | 8.0 | 0.00 | 0.00 | 0.00 | 75 | 1017.2 |
| 20260510172530 | 76 | 305 | 7.0 | 8.0 | 0.00 | 0.00 | 0.00 | 75 | 1017.3 |
| 20260510172027 | 76 | 319 | 3.0 | 3.0 | 0.00 | 0.00 | 0.00 | 76 | 1017.2 |
| 20260510171523 | 76 | 357 | 2.0 | 2.0 | 0.00 | 0.00 | 0.00 | 76 | 1017.0 |
| 20260510171020 | 76 | 326 | 3.0 | 3.0 | 0.00 | 0.00 | 0.00 | 73 | 1017.1 |
| 20260510170517 | 77 | 308 | 5.0 | 5.0 | 0.00 | 0.00 | 0.00 | 72 | 1017.1 |
| 20260510170013 | 77 | 62 | 2.0 | 3.0 | 0.00 | 0.00 | 0.00 | 71 | 1017.3 |
| 20260510165509 | 76 | 13 | 2.0 | 3.0 | 0.00 | 0.00 | 0.00 | 75 | 1016.8 |
| 20260510165005 | 77 | 314 | 6.0 | 7.0 | 0.00 | 0.00 | 0.00 | 74 | 1017.2 |
| 20260510164502 | 78 | 21 | 4.0 | 6.0 | 0.00 | 0.00 | 0.00 | 73 | 1017.4 |
| 20260510163958 | 78 | 22 | 5.0 | 6.0 | 0.00 | 0.00 | 0.00 | 72 | 1017.1 |
| 20260510163454 | 77 | 351 | 1.0 | 2.0 | 0.00 | 0.00 | 0.00 | 73 | 1017.1 |
| 20260510162949 | 77 | 12 | 2.0 | 3.0 | 0.00 | 0.00 | 0.00 | 75 | 1017.3 |
| 20260510162446 | 76 | 334 | 4.0 | 5.0 | 0.00 | 0.00 | 0.00 | 80 | 1017.3 |
| 20260510161942 | 75 | 297 | 5.0 | 6.0 | 0.00 | 0.00 | 0.00 | 75 | 1017.3 |
| 20260510161438 | 77 | 319 | 6.0 | 8.0 | 0.00 | 0.00 | 0.00 | 74 | 1017.3 |
| 20260510160936 | 77 | 270 | 3.0 | 3.0 | 0.00 | 0.00 | 0.00 | 76 | 1017.6 |
| 20260510160432 | 76 | 328 | 3.0 | 5.0 | 0.00 | 0.00 | 0.00 | 74 | 1017.2 |
| 20260510155931 | 75 | 284 | 4.0 | 5.0 | 0.00 | 0.00 | 0.00 | 76 | 1017.3 |
| 20260510155428 | 76 | 349 | 4.0 | 6.0 | 0.00 | 0.00 | 0.00 | 76 | 1017.4 |
| 20260510154924 | 76 | 15 | 2.0 | 2.0 | 0.00 | 0.00 | 0.00 | 76 | 1017.3 |
| 20260510154420 | 76 | 327 | 4.0 | 6.0 | 0.00 | 0.00 | 0.00 | 76 | 1017.5 |
| 20260510153914 | 76 | 7 | 3.0 | 5.0 | 0.00 | 0.00 | 0.00 | 77 | 1017.3 |
| 20260510153411 | 75 | 6 | 3.0 | 3.0 | 0.00 | 0.00 | 0.00 | 78 | 1017.5 |
| 20260510152908 | 75 | 346 | 4.0 | 5.0 | 0.00 | 0.00 | 0.00 | 79 | 1017.4 |
| 20260510152405 | 74 | 19 | 3.0 | 3.0 | 0.00 | 0.00 | 0.00 | 80 | 1017.2 |
| 20260510151901 | 74 | 321 | 4.0 | 5.0 | 0.00 | 0.00 | 0.00 | 78 | 1017.5 |
| 20260510151359 | 74 | 286 | 3.0 | 3.0 | 0.00 | 0.00 | 0.00 | 80 | 1017.4 |
| 20260510150855 | 75 | 9 | 2.0 | 3.0 | 0.00 | 0.00 | 0.00 | 81 | 1017.5 |
| 20260510150350 | 73 | 89 | 1.0 | 1.0 | 0.00 | 0.00 | 0.00 | 80 | 1017.4 |
| 20260510145847 | 73 | 341 | 3.0 | 3.0 | 0.00 | 0.00 | 0.00 | 82 | 1017.4 |
| 20260510145343 | 74 | 13 | 1.0 | 1.0 | 0.00 | 0.00 | 0.00 | 81 | 1017.2 |
| 20260510144840 | 72 | 82 | 1.0 | 1.0 | 0.00 | 0.00 | 0.00 | 85 | 1017.2 |
| 20260510144337 | 73 | 343 | 3.0 | 3.0 | 0.00 | 0.00 | 0.00 | 86 | 1017.2 |
| 20260510143836 | 71 | 319 | 1.0 | 2.0 | 0.00 | 0.00 | 0.00 | 88 | 1017.2 |
| 20260510143333 | 71 | 26 | 0.0 | 1.0 | 0.00 | 0.00 | 0.00 | 89 | 1017.2 |
| 20260510142830 | 70 | 120 | 1.0 | 1.0 | 0.00 | 0.00 | 0.00 | 89 | 1017.1 |
| 20260510142326 | 69 | 39 | 0.0 | 0.0 | 0.00 | 0.00 | 0.00 | 89 | 1017.3 |
| 20260510141823 | 68 | 5 | 0.0 | 1.0 | 0.00 | 0.00 | 0.00 | 89 | 1017.3 |
| 20260510141322 | 68 | 355 | 2.0 | 2.0 | 0.00 | 0.00 | 0.00 | 89 | 1017.1 |
| 20260510140819 | 68 | 287 | 1.0 | 2.0 | 0.00 | 0.00 | 0.00 | 89 | 1017.0 |
| 20260510140315 | 69 | 359 | 1.0 | 1.0 | 0.00 | 0.00 | 0.00 | 89 | 1017.1 |
| 20260510135813 | 68 | 26 | 0.0 | 0.0 | 0.00 | 0.00 | 0.00 | 89 | 1017.0 |
| 20260510135309 | 68 | 1 | 1.0 | 1.0 | 0.00 | 0.00 | 0.00 | 89 | 1017.0 |
| 20260510134807 | 67 | 30 | 0.0 | 1.0 | 0.00 | 0.00 | 0.00 | 89 | 1017.2 |
| 20260510134304 | 67 | 37 | 1.0 | 1.0 | 0.00 | 0.00 | 0.00 | 89 | 1017.1 |
| 20260510133759 | 67 | 27 | 1.0 | 1.0 | 0.00 | 0.00 | 0.00 | 89 | 1016.9 |
| 20260510133256 | 67 | 28 | 0.0 | 0.0 | 0.00 | 0.00 | 0.00 | 89 | 1016.9 |
| 20260510132751 | 67 | 337 | 1.0 | 1.0 | 0.00 | 0.00 | 0.00 | 89 | 1017.1 |
| 20260510132250 | 67 | 338 | 2.0 | 2.0 | 0.00 | 0.00 | 0.00 | 89 | 1016.9 |
| 20260510131746 | 66 | 23 | 1.0 | 1.0 | 0.00 | 0.00 | 0.00 | 89 | 1016.6 |
| 20260510131244 | 66 | 3 | 1.0 | 1.0 | 0.00 | 0.00 | 0.00 | 89 | 1016.6 |
| 20260510130740 | 66 | 23 | 0.0 | 0.0 | 0.00 | 0.00 | 0.00 | 89 | 1016.5 |
| 20260510130237 | 66 | 14 | 0.0 | 0.0 | 0.00 | 0.00 | 0.00 | 89 | 1016.8 |
| 20260510125733 | 66 | 12 | 0.0 | 0.0 | 0.00 | 0.00 | 0.00 | 89 | 1016.6 |
| 20260510125229 | 65 | 28 | 0.0 | 0.0 | 0.00 | 0.00 | 0.00 | 89 | 1016.4 |
| 20260510124726 | 65 | 20 | 0.0 | 0.0 | 0.00 | 0.00 | 0.00 | 89 | 1016.3 |
| 20260510124224 | 65 | 56 | 0.0 | 0.0 | 0.00 | 0.00 | 0.00 | 89 | 1016.3 |
| 20260510123719 | 64 | 61 | 0.0 | 0.0 | 0.00 | 0.00 | 0.00 | 89 | 1016.6 |
| 20260510123215 | 64 | 55 | 0.0 | 0.0 | 0.00 | 0.00 | 0.00 | 89 | 1016.3 |
| 20260510122712 | 64 | 51 | 0.0 | 0.0 | 0.00 | 0.00 | 0.00 | 89 | 1016.2 |
| 20260510122208 | 64 | 38 | 0.0 | 0.0 | 0.00 | 0.00 | 0.00 | 89 | 1016.3 |
| 20260510121704 | 63 | 20 | 0.0 | 0.0 | 0.00 | 0.00 | 0.00 | 89 | 1016.3 |
| 20260510121202 | 63 | 2 | 0.0 | 0.0 | 0.00 | 0.00 | 0.00 | 89 | 1016.3 |
| 20260510120659 | 63 | 358 | 0.0 | 0.0 | 0.00 | 0.00 | 0.00 | 89 | 1016.1 |
| 20260510120156 | 63 | 30 | 0.0 | 0.0 | 0.00 | 0.00 | 0.00 | 89 | 1016.1 |
| 20260510115651 | 63 | 28 | 0.0 | 0.0 | 0.00 | 0.00 | 0.00 | 89 | 1016.2 |
| 20260510115150 | 63 | 33 | 0.0 | 0.0 | 0.00 | 0.00 | 0.00 | 89 | 1015.8 |
| 20260510114645 | 62 | 41 | 0.0 | 0.0 | 0.00 | 0.00 | 0.00 | 89 | 1015.8 |
| 20260510114142 | 62 | 38 | 0.0 | 0.0 | 0.00 | 0.00 | 0.00 | 89 | 1015.7 |
| 20260510113637 | 62 | 36 | 0.0 | 0.0 | 0.00 | 0.00 | 0.00 | 89 | 1015.8 |
| 20260510113134 | 62 | 30 | 0.0 | 0.0 | 0.00 | 0.00 | 0.00 | 89 | 1015.5 |
| 20260510112631 | 62 | 59 | 0.0 | 0.0 | 0.00 | 0.00 | 0.00 | 89 | 1015.6 |
| 20260510112127 | 62 | 23 | 0.0 | 0.0 | 0.00 | 0.00 | 0.00 | 89 | 1015.5 |
| 20260510111624 | 62 | 17 | 0.0 | 0.0 | 0.00 | 0.00 | 0.00 | 89 | 1015.4 |
| 20260510111120 | 61 | 24 | 0.0 | 0.0 | 0.00 | 0.00 | 0.00 | 89 | 1015.4 |
| 20260510110616 | 61 | 45 | 0.0 | 0.0 | 0.00 | 0.00 | 0.00 | 89 | 1015.4 |
| 20260510110113 | 61 | 53 | 0.0 | 0.0 | 0.00 | 0.00 | 0.00 | 89 | 1014.9 |
| 20260510105608 | 61 | 24 | 0.0 | 0.0 | 0.00 | 0.00 | 0.00 | 89 | 1015.1 |
| 20260510105103 | 61 | 46 | 0.0 | 0.0 | 0.00 | 0.00 | 0.00 | 89 | 1015.0 |
| 20260510104600 | 60 | 30 | 0.0 | 0.0 | 0.00 | 0.00 | 0.00 | 89 | 1014.8 |
| 20260510104056 | 60 | 24 | 0.0 | 0.0 | 0.00 | 0.00 | 0.00 | 89 | 1014.7 |
| 20260510103553 | 61 | 29 | 0.0 | 0.0 | 0.00 | 0.00 | 0.00 | 89 | 1014.6 |
| 20260510103049 | 61 | 34 | 0.0 | 0.0 | 0.00 | 0.00 | 0.00 | 89 | 1014.7 |
| 20260510102545 | 61 | 50 | 0.0 | 0.0 | 0.00 | 0.00 | 0.00 | 89 | 1014.8 |
| 20260510102041 | 61 | 44 | 0.0 | 0.0 | 0.00 | 0.00 | 0.00 | 89 | 1014.6 |
| 20260510101539 | 61 | 44 | 0.0 | 0.0 | 0.00 | 0.00 | 0.00 | 89 | 1014.5 |
| 20260510101038 | 61 | 36 | 0.0 | 0.0 | 0.00 | 0.00 | 0.00 | 89 | 1014.6 |
| 20260510100533 | 61 | 32 | 0.0 | 0.0 | 0.00 | 0.00 | 0.00 | 89 | 1014.4 |
| 20260510100031 | 61 | 34 | 0.0 | 0.0 | 0.00 | 0.00 | 0.00 | 89 | 1014.7 |
| 20260510095526 | 61 | 37 | 0.0 | 0.0 | 0.00 | 0.00 | 0.00 | 89 | 1014.7 |
| 20260510095025 | 61 | 27 | 0.0 | 0.0 | 0.00 | 0.00 | 0.00 | 89 | 1014.6 |
| 20260510094520 | 61 | 27 | 0.0 | 0.0 | 0.00 | 0.00 | 0.00 | 89 | 1014.6 |
| 20260510094016 | 61 | 42 | 0.0 | 0.0 | 0.00 | 0.00 | 0.00 | 89 | 1014.3 |
| 20260510093512 | 61 | 41 | 0.0 | 0.0 | 0.00 | 0.00 | 0.00 | 89 | 1014.4 |
| 20260510093009 | 61 | 29 | 0.0 | 0.0 | 0.00 | 0.00 | 0.00 | 89 | 1014.8 |
| 20260510092506 | 61 | 29 | 0.0 | 0.0 | 0.00 | 0.00 | 0.00 | 89 | 1014.6 |
| 20260510092006 | 61 | 30 | 0.0 | 0.0 | 0.00 | 0.00 | 0.00 | 89 | 1014.4 |
| 20260510091503 | 61 | 23 | 0.0 | 0.0 | 0.00 | 0.00 | 0.00 | 89 | 1014.7 |
| 20260510090959 | 61 | 26 | 0.0 | 0.0 | 0.00 | 0.00 | 0.00 | 89 | 1014.4 |
| 20260510090456 | 61 | 27 | 0.0 | 0.0 | 0.00 | 0.00 | 0.00 | 89 | 1014.4 |
| 20260510085951 | 61 | 23 | 0.0 | 0.0 | 0.00 | 0.00 | 0.00 | 89 | 1014.2 |
| 20260510085447 | 61 | 20 | 0.0 | 0.0 | 0.00 | 0.00 | 0.00 | 89 | 1014.1 |
| 20260510084942 | 62 | 23 | 0.0 | 0.0 | 0.00 | 0.00 | 0.00 | 89 | 1013.9 |
| 20260510084440 | 62 | 25 | 0.0 | 0.0 | 0.00 | 0.00 | 0.00 | 89 | 1014.0 |
| 20260510083936 | 62 | 26 | 0.0 | 0.0 | 0.00 | 0.00 | 0.00 | 89 | 1013.8 |
| 20260510083433 | 62 | 44 | 0.0 | 0.0 | 0.00 | 0.00 | 0.00 | 89 | 1013.9 |
| 20260510082928 | 62 | 48 | 0.0 | 0.0 | 0.00 | 0.00 | 0.00 | 89 | 1013.8 |
| 20260510082426 | 62 | 64 | 1.0 | 1.0 | 0.00 | 0.00 | 0.00 | 89 | 1013.4 |
| 20260510081925 | 62 | 43 | 0.0 | 0.0 | 0.00 | 0.00 | 0.00 | 89 | 1013.3 |
| 20260510081421 | 62 | 34 | 0.0 | 0.0 | 0.00 | 0.00 | 0.00 | 89 | 1013.5 |
| 20260510080918 | 63 | 53 | 0.0 | 0.0 | 0.00 | 0.00 | 0.00 | 89 | 1013.6 |
| 20260510080416 | 63 | 49 | 0.0 | 0.0 | 0.00 | 0.00 | 0.00 | 89 | 1013.7 |
| 20260510075914 | 63 | 128 | 1.0 | 2.0 | 0.00 | 0.00 | 0.00 | 89 | 1013.6 |
| 20260510075412 | 63 | 123 | 1.0 | 2.0 | 0.00 | 0.00 | 0.00 | 89 | 1013.7 |
| 20260510074908 | 63 | 57 | 0.0 | 0.0 | 0.00 | 0.00 | 0.00 | 89 | 1013.5 |
| 20260510074405 | 63 | 24 | 0.0 | 0.0 | 0.00 | 0.00 | 0.00 | 89 | 1013.5 |
| 20260510073902 | 63 | 24 | 0.0 | 0.0 | 0.00 | 0.00 | 0.00 | 89 | 1013.5 |
| 20260510073357 | 63 | 30 | 0.0 | 0.0 | 0.00 | 0.00 | 0.00 | 89 | 1013.3 |
| 20260510072853 | 63 | 42 | 0.0 | 0.0 | 0.00 | 0.00 | 0.00 | 89 | 1013.2 |
| 20260510072350 | 63 | 46 | 0.0 | 0.0 | 0.00 | 0.00 | 0.00 | 89 | 1013.1 |
| 20260510071846 | 63 | 16 | 0.0 | 0.0 | 0.00 | 0.00 | 0.00 | 89 | 1013.5 |
| 20260510071343 | 63 | 16 | 0.0 | 0.0 | 0.00 | 0.00 | 0.00 | 89 | 1013.3 |
| 20260510070842 | 63 | 29 | 0.0 | 0.0 | 0.00 | 0.00 | 0.00 | 89 | 1013.3 |
| 20260510070339 | 63 | 10 | 0.0 | 0.0 | 0.00 | 0.00 | 0.00 | 89 | 1013.4 |
| 20260510065838 | 63 | 6 | 0.0 | 0.0 | 0.00 | 0.00 | 0.00 | 89 | 1013.2 |
| 20260510065335 | 63 | 23 | 0.0 | 0.0 | 0.00 | 0.00 | 0.00 | 89 | 1013.3 |
| 20260510064832 | 63 | 25 | 0.0 | 0.0 | 0.00 | 0.00 | 0.00 | 89 | 1013.1 |
| 20260510064330 | 63 | 15 | 0.0 | 0.0 | 0.00 | 0.00 | 0.00 | 89 | 1013.1 |
| 20260510063826 | 63 | 30 | 0.0 | 0.0 | 0.00 | 0.00 | 0.00 | 89 | 1013.2 |
| 20260510063323 | 63 | 37 | 0.0 | 0.0 | 0.00 | 0.00 | 0.00 | 89 | 1013.2 |
| 20260510062819 | 63 | 25 | 0.0 | 0.0 | 0.00 | 0.00 | 0.00 | 89 | 1013.4 |
| 20260510062315 | 63 | 23 | 0.0 | 0.0 | 0.00 | 0.00 | 0.00 | 89 | 1013.3 |
| 20260510061816 | 63 | 24 | 0.0 | 0.0 | 0.00 | 0.00 | 0.00 | 89 | 1013.3 |
| 20260510061313 | 63 | 7 | 1.0 | 1.0 | 0.00 | 0.00 | 0.00 | 89 | 1013.4 |
| 20260510060809 | 63 | 9 | 0.0 | 0.0 | 0.00 | 0.00 | 0.00 | 89 | 1013.6 |
| 20260510060307 | 64 | 329 | 1.0 | 2.0 | 0.00 | 0.00 | 0.00 | 89 | 1013.3 |
| 20260510055804 | 64 | 63 | 1.0 | 1.0 | 0.00 | 0.00 | 0.00 | 89 | 1013.2 |
| 20260510055306 | 64 | 37 | 0.0 | 0.0 | 0.00 | 0.00 | 0.00 | 89 | 1013.3 |
| 20260510054801 | 64 | 43 | 0.0 | 0.0 | 0.00 | 0.00 | 0.00 | 89 | 1013.4 |
| 20260510054257 | 64 | 70 | 1.0 | 1.0 | 0.00 | 0.00 | 0.00 | 89 | 1013.3 |
| 20260510053752 | 64 | 63 | 0.0 | 1.0 | 0.00 | 0.00 | 0.00 | 89 | 1013.1 |
| 20260510053248 | 64 | 91 | 1.0 | 2.0 | 0.00 | 0.00 | 0.00 | 89 | 1013.6 |
| 20260510052744 | 64 | 20 | 0.0 | 0.0 | 0.00 | 0.00 | 0.00 | 89 | 1013.7 |
| 20260510052240 | 64 | 38 | 0.0 | 0.0 | 0.00 | 0.00 | 0.00 | 89 | 1013.2 |
| 20260510051736 | 64 | 48 | 0.0 | 0.0 | 0.00 | 0.00 | 0.00 | 89 | 1013.6 |
| 20260510051233 | 64 | 49 | 0.0 | 0.0 | 0.00 | 0.00 | 0.00 | 89 | 1013.7 |
| 20260510050730 | 64 | 56 | 0.0 | 0.0 | 0.00 | 0.00 | 0.00 | 89 | 1013.9 |
| 20260510050227 | 64 | 45 | 0.0 | 0.0 | 0.00 | 0.00 | 0.00 | 89 | 1013.9 |
| 20260510045724 | 64 | 53 | 0.0 | 0.0 | 0.00 | 0.67 | 0.67 | 89 | 1014.1 |
| 20260510045220 | 65 | 49 | 0.0 | 0.0 | 0.00 | 0.67 | 0.67 | 89 | 1014.3 |
| 20260510044716 | 65 | 31 | 0.0 | 0.0 | 0.00 | 0.67 | 0.67 | 89 | 1014.2 |
| 20260510044215 | 65 | 21 | 0.0 | 0.0 | 0.00 | 0.67 | 0.67 | 89 | 1014.3 |
| 20260510043710 | 65 | 15 | 0.0 | 0.0 | 0.00 | 0.67 | 0.67 | 89 | 1014.0 |
| 20260510043207 | 65 | 25 | 0.0 | 0.0 | 0.00 | 0.67 | 0.67 | 89 | 1014.5 |
| 20260510042704 | 65 | 323 | 2.0 | 2.0 | 0.00 | 0.67 | 0.67 | 89 | 1014.4 |
| 20260510042200 | 65 | 103 | 0.0 | 1.0 | 0.00 | 0.67 | 0.67 | 89 | 1014.4 |
| 20260510041657 | 65 | 120 | 1.0 | 1.0 | 0.00 | 0.67 | 0.67 | 89 | 1014.1 |
| 20260510041154 | 65 | 52 | 0.0 | 0.0 | 0.00 | 0.67 | 0.67 | 89 | 1014.0 |
| 20260510040651 | 65 | 33 | 0.0 | 0.0 | 0.00 | 0.67 | 0.67 | 89 | 1014.1 |
| 20260510040148 | 65 | 50 | 0.0 | 0.0 | 0.00 | 0.67 | 0.67 | 89 | 1014.2 |
| 20260510035643 | 65 | 57 | 0.0 | 0.0 | 0.00 | 0.67 | 0.67 | 89 | 1014.3 |
| 20260510035139 | 65 | 45 | 0.0 | 0.0 | 0.00 | 0.67 | 0.67 | 89 | 1014.4 |
| 20260510034636 | 65 | 35 | 0.0 | 0.0 | 0.00 | 0.67 | 0.67 | 89 | 1014.4 |
| 20260510034133 | 65 | 48 | 0.0 | 0.0 | 0.00 | 0.67 | 0.67 | 89 | 1014.4 |
| 20260510033629 | 65 | 61 | 0.0 | 1.0 | 0.00 | 0.67 | 0.67 | 89 | 1014.4 |
| 20260510033127 | 65 | 20 | 0.0 | 0.0 | 0.00 | 0.67 | 0.67 | 89 | 1014.8 |
| 20260510032623 | 65 | 18 | 0.0 | 0.0 | 0.00 | 0.67 | 0.67 | 89 | 1014.6 |
| 20260510032119 | 65 | 0 | 0.0 | 1.0 | 0.00 | 0.67 | 0.67 | 89 | 1014.7 |
| 20260510031613 | 65 | 24 | 0.0 | 0.0 | 0.00 | 0.67 | 0.67 | 89 | 1014.4 |
| 20260510031111 | 65 | 37 | 0.0 | 0.0 | 0.00 | 0.67 | 0.67 | 89 | 1014.5 |
| 20260510030605 | 65 | 37 | 0.0 | 0.0 | 0.00 | 0.67 | 0.67 | 89 | 1014.3 |
| 20260510030103 | 65 | 30 | 0.0 | 0.0 | 0.00 | 0.67 | 0.67 | 89 | 1014.5 |
| 20260510025600 | 65 | 24 | 0.0 | 0.0 | 0.00 | 0.67 | 0.67 | 89 | 1014.5 |
| 20260510025058 | 65 | 24 | 0.0 | 0.0 | 0.00 | 0.67 | 0.67 | 89 | 1014.3 |
| 20260510024554 | 65 | 7 | 0.0 | 0.0 | 0.00 | 0.67 | 0.67 | 89 | 1014.4 |
| 20260510024050 | 65 | 58 | 0.0 | 1.0 | 0.00 | 0.67 | 0.67 | 89 | 1014.1 |
| 20260510023547 | 65 | 30 | 0.0 | 0.0 | 0.00 | 0.67 | 0.67 | 89 | 1014.1 |
| 20260510023044 | 65 | 76 | 1.0 | 1.0 | 0.00 | 0.67 | 0.67 | 89 | 1013.8 |
| 20260510022543 | 65 | 344 | 0.0 | 0.0 | 0.00 | 0.67 | 0.67 | 89 | 1014.0 |
| 20260510022038 | 65 | 137 | 3.0 | 3.0 | 0.00 | 0.67 | 0.67 | 89 | 1013.4 |
| 20260510021535 | 66 | 143 | 3.0 | 3.0 | 0.00 | 0.67 | 0.67 | 89 | 1013.5 |
| 20260510021033 | 66 | 102 | 2.0 | 2.0 | 0.00 | 0.67 | 0.67 | 89 | 1013.7 |
| 20260510020532 | 66 | 87 | 1.0 | 2.0 | 0.00 | 0.67 | 0.67 | 89 | 1014.1 |
| 20260510020028 | 66 | 22 | 0.0 | 0.0 | 0.00 | 0.67 | 0.67 | 89 | 1013.9 |
| 20260510015524 | 66 | 8 | 0.0 | 0.0 | 0.00 | 0.67 | 0.67 | 89 | 1014.1 |
| 20260510015020 | 66 | 100 | 3.0 | 3.0 | 0.00 | 0.67 | 0.67 | 89 | 1013.9 |
| 20260510014517 | 66 | 135 | 3.0 | 3.0 | 0.00 | 0.67 | 0.67 | 89 | 1013.7 |
| 20260510014014 | 66 | 104 | 2.0 | 2.0 | 0.00 | 0.67 | 0.67 | 89 | 1013.7 |
| 20260510013508 | 66 | 119 | 2.0 | 2.0 | 0.00 | 0.67 | 0.67 | 89 | 1013.6 |
| 20260510013004 | 66 | 141 | 3.0 | 3.0 | 0.00 | 0.67 | 0.67 | 89 | 1013.6 |
| 20260510012459 | 66 | 108 | 2.0 | 2.0 | 0.00 | 0.67 | 0.67 | 89 | 1013.9 |
| 20260510011954 | 66 | 58 | 0.0 | 1.0 | 0.00 | 0.67 | 0.67 | 89 | 1013.6 |
| 20260510011449 | 66 | 75 | 1.0 | 2.0 | 0.00 | 0.67 | 0.67 | 89 | 1013.8 |
| 20260510010945 | 66 | 46 | 0.0 | 0.0 | 0.00 | 0.67 | 0.67 | 89 | 1013.8 |
| 20260510010443 | 66 | 23 | 0.0 | 0.0 | 0.00 | 0.67 | 0.67 | 89 | 1013.8 |
| 20260510005940 | 66 | 20 | 0.0 | 0.0 | 0.00 | 0.67 | 0.67 | 89 | 1013.8 |
| 20260510005435 | 66 | 41 | 0.0 | 0.0 | 0.00 | 0.67 | 0.67 | 89 | 1013.5 |
| 20260510004933 | 66 | 63 | 0.0 | 1.0 | 0.00 | 0.67 | 0.67 | 89 | 1013.5 |
| 20260510004430 | 66 | 41 | 0.0 | 0.0 | 0.00 | 0.67 | 0.67 | 89 | 1013.3 |
| 20260510003928 | 66 | 60 | 0.0 | 1.0 | 0.00 | 0.67 | 0.67 | 89 | 1013.4 |
| 20260510003425 | 66 | 47 | 0.0 | 0.0 | 0.00 | 0.67 | 0.67 | 89 | 1013.2 |
| 20260510002924 | 66 | 7 | 0.0 | 0.0 | 0.00 | 0.67 | 0.67 | 89 | 1013.1 |
| 20260510002421 | 66 | 334 | 1.0 | 1.0 | 0.00 | 0.67 | 0.67 | 89 | 1013.1 |
| 20260510001918 | 66 | 8 | 0.0 | 0.0 | 0.00 | 0.67 | 0.67 | 89 | 1013.0 |
| 20260510001415 | 66 | 97 | 1.0 | 1.0 | 0.00 | 0.67 | 0.67 | 89 | 1012.9 |
| 20260510000912 | 66 | 71 | 0.0 | 1.0 | 0.00 | 0.67 | 0.67 | 89 | 1012.8 |
| 20260510000411 | 66 | 122 | 2.0 | 2.0 | 0.00 | 0.67 | 0.67 | 89 | 1012.9 |
| 20260509235905 | 67 | 82 | 1.0 | 1.0 | 0.00 | 0.67 | 0.67 | 89 | 1012.8 |
| 20260509235402 | 67 | 53 | 0.0 | 0.0 | 0.00 | 0.67 | 0.67 | 89 | 1013.1 |
| 20260509234858 | 67 | 62 | 0.0 | 1.0 | 0.00 | 0.67 | 0.67 | 89 | 1013.2 |
| 20260509234356 | 67 | 29 | 0.0 | 0.0 | 0.00 | 0.67 | 0.67 | 89 | 1013.2 |
| 20260509233853 | 67 | 18 | 0.0 | 0.0 | 0.00 | 0.67 | 0.67 | 89 | 1013.0 |
| 20260509233351 | 67 | 23 | 0.0 | 0.0 | 0.00 | 0.67 | 0.67 | 89 | 1013.2 |
| 20260509232846 | 67 | 20 | 0.0 | 0.0 | 0.00 | 0.67 | 0.67 | 89 | 1013.1 |
| 20260509232344 | 67 | 23 | 0.0 | 0.0 | 0.00 | 0.67 | 0.67 | 89 | 1012.9 |
| 20260509231840 | 67 | 23 | 0.0 | 0.0 | 0.00 | 0.67 | 0.67 | 89 | 1012.8 |
| 20260509231337 | 67 | 17 | 0.0 | 0.0 | 0.00 | 0.67 | 0.67 | 89 | 1013.0 |
| 20260509230835 | 67 | 50 | 0.0 | 0.0 | 0.00 | 0.67 | 0.67 | 89 | 1012.6 |
| 20260509230332 | 67 | 71 | 1.0 | 1.0 | 0.00 | 0.67 | 0.67 | 89 | 1012.9 |
| 20260509225827 | 67 | 51 | 0.0 | 0.0 | 0.00 | 0.67 | 0.67 | 89 | 1012.5 |
| 20260509225324 | 67 | 1 | 0.0 | 0.0 | 0.00 | 0.67 | 0.67 | 89 | 1012.6 |
| 20260509224820 | 67 | 13 | 0.0 | 0.0 | 0.00 | 0.67 | 0.67 | 89 | 1012.9 |
| 20260509224316 | 67 | 4 | 0.0 | 0.0 | 0.00 | 0.67 | 0.67 | 89 | 1012.5 |
| 20260509223813 | 67 | 3 | 0.0 | 1.0 | 0.00 | 0.67 | 0.67 | 89 | 1012.6 |
| 20260509223310 | 67 | 321 | 1.0 | 1.0 | 0.00 | 0.67 | 0.67 | 89 | 1012.2 |
| 20260509222807 | 67 | 321 | 0.0 | 1.0 | 0.00 | 0.67 | 0.67 | 89 | 1012.3 |
| 20260509222306 | 67 | 10 | 0.0 | 1.0 | 0.00 | 0.67 | 0.67 | 89 | 1012.6 |
| 20260509221758 | 67 | 5 | 0.0 | 0.0 | 0.00 | 0.67 | 0.67 | 89 | 1012.3 |
| 20260509221255 | 67 | 4 | 0.0 | 1.0 | 0.00 | 0.67 | 0.67 | 89 | 1012.3 |
| 20260509220750 | 67 | 270 | 1.0 | 2.0 | 0.00 | 0.67 | 0.67 | 89 | 1012.1 |
| 20260509220247 | 66 | 74 | 1.0 | 2.0 | 0.00 | 0.67 | 0.67 | 89 | 1012.1 |
| 20260509215742 | 66 | 77 | 1.0 | 1.0 | 0.00 | 0.67 | 0.67 | 89 | 1012.2 |
| 20260509215240 | 67 | 60 | 1.0 | 1.0 | 0.00 | 0.67 | 0.67 | 89 | 1012.0 |
| 20260509214736 | 67 | 34 | 0.0 | 0.0 | 0.00 | 0.67 | 0.67 | 89 | 1011.8 |
| 20260509214234 | 67 | 35 | 0.0 | 1.0 | 0.00 | 0.67 | 0.67 | 89 | 1012.0 |
| 20260509213730 | 67 | 51 | 1.0 | 1.0 | 0.00 | 0.67 | 0.67 | 89 | 1011.8 |
| 20260509213226 | 67 | 71 | 1.0 | 1.0 | 0.00 | 0.67 | 0.67 | 89 | 1011.6 |
| 20260509212724 | 67 | 82 | 1.0 | 1.0 | 0.00 | 0.67 | 0.67 | 89 | 1011.8 |
| 20260509212221 | 67 | 7 | 0.0 | 1.0 | 0.00 | 0.67 | 0.67 | 89 | 1011.7 |
| 20260509211717 | 67 | 10 | 0.0 | 1.0 | 0.00 | 0.67 | 0.67 | 89 | 1011.6 |
| 20260509211213 | 67 | 121 | 3.0 | 3.0 | 0.00 | 0.67 | 0.67 | 89 | 1011.7 |
| 20260509210710 | 67 | 7 | 0.0 | 1.0 | 0.00 | 0.67 | 0.67 | 89 | 1011.9 |
| 20260509210207 | 66 | 58 | 1.0 | 1.0 | 0.00 | 0.67 | 0.67 | 89 | 1011.6 |
| 20260509205707 | 66 | 122 | 2.0 | 2.0 | 0.00 | 0.67 | 0.67 | 89 | 1011.4 |
| 20260509205206 | 66 | 172 | 1.0 | 2.0 | 0.00 | 0.67 | 0.67 | 89 | 1011.6 |
| 20260509204703 | 66 | 115 | 3.0 | 5.0 | 0.00 | 0.67 | 0.67 | 89 | 1011.2 |
| 20260509204159 | 66 | 116 | 3.0 | 3.0 | 0.00 | 0.67 | 0.67 | 89 | 1011.4 |
| 20260509203655 | 66 | 74 | 1.0 | 2.0 | 0.00 | 0.67 | 0.67 | 89 | 1011.5 |
| 20260509203154 | 66 | 73 | 3.0 | 3.0 | 0.00 | 0.67 | 0.67 | 89 | 1011.4 |
| 20260509202649 | 66 | 56 | 1.0 | 2.0 | 0.00 | 0.67 | 0.67 | 89 | 1011.5 |
| 20260509202144 | 66 | 114 | 3.0 | 3.0 | 0.00 | 0.67 | 0.67 | 89 | 1011.6 |
| 20260509201640 | 66 | 139 | 2.0 | 2.0 | 0.00 | 0.67 | 0.67 | 89 | 1011.5 |
| 20260509201137 | 66 | 93 | 2.0 | 3.0 | 0.00 | 0.67 | 0.67 | 89 | 1011.3 |
| 20260509200632 | 66 | 107 | 3.0 | 5.0 | 0.00 | 0.67 | 0.67 | 89 | 1011.6 |
| 20260509200123 | 66 | 178 | 3.0 | 5.0 | 0.00 | 0.67 | 0.67 | 89 | 1011.7 |
| 20260509195619 | 66 | 147 | 5.0 | 5.0 | 0.00 | 0.67 | 0.67 | 89 | 1011.4 |
| 20260509195114 | 66 | 149 | 3.0 | 5.0 | 0.00 | 0.67 | 0.67 | 89 | 1011.5 |
| 20260509194613 | 66 | 27 | 1.0 | 2.0 | 0.00 | 0.67 | 0.67 | 89 | 1011.6 |
| 20260509194111 | 66 | 152 | 5.0 | 6.0 | 0.00 | 0.67 | 0.67 | 89 | 1011.2 |
| 20260509193607 | 66 | 32 | 2.0 | 3.0 | 0.07 | 0.67 | 0.67 | 89 | 1011.6 |
| 20260509193102 | 66 | 31 | 1.0 | 2.0 | 0.07 | 0.67 | 0.67 | 89 | 1011.6 |
| 20260509192559 | 66 | 53 | 0.0 | 1.0 | 0.00 | 0.66 | 0.66 | 89 | 1011.3 |